#timestamp,LO_Frequency,Hit,StdDev 
1574575215.8,286047003.8,N
1574575235.7,286047003.3,N
1574575255.5,286047003.8,N
1574575275.3,286047004.0,N
1574575295.2,286047002.9,N
1574575315.0,286047003.2,N
1574575315.9,286047003.2,N
1574575335.8,286047005.6,Y
1574575355.6,286047001.5,P
1574575375.4,286047000.4,N
1574575395.3,286047003.8,P
1574575415.1,286047002.1,N
1574575435.8,286047002.6,N
1574575455.7,286047000.1,N
1574575475.5,286046999.9,N
1574575495.4,286047000.4,N
1574575515.2,286047000.1,N
1574575535.0,286047000.6,N
1574575535.9,286047000.6,N
1574575555.8,286047000.6,N
1574575575.6,286047002.8,N
1574575595.4,286047002.1,N
1574575615.3,286047002.5,N
1574575635.1,286047002.6,N
1574575655.9,286046998.2,N
1574575675.7,286046996.8,N
1574575695.5,286046998.4,N
1574575715.4,286046999.1,N
1574575735.2,286046997.4,N
1574575755.0,286046996.9,N
1574575755.9,286046996.9,N
1574575775.8,286046997.1,N
1574575795.6,286046999.0,N
1574575815.5,286047000.9,N
1574575835.3,286047001.1,N
1574575855.1,286046998.2,N
1574575875.9,286047000.8,N
1574575895.7,286047002.7,N
1574575915.5,286047000.2,N
1574575935.4,286047002.4,N
1574575955.2,286047000.1,N
1574575975.1,286047000.9,N
1574575976.0,286047000.9,N
1574575995.8,286047000.7,N
1574576015.6,286047001.2,N
1574576035.5,286047002.8,N
1574576055.3,286047000.9,N
1574576075.1,286047000.2,N
1574576095.9,286047002.1,N
1574576115.7,286047003.2,N
1574576135.6,286047004.0,N
1574576155.4,286047004.2,N
1574576175.2,286047002.4,N
1574576195.1,286047003.9,N
1574576196.0,286047003.9,N
1574576215.8,286047002.0,N
1574576235.7,286047004.4,N
1574576255.5,286047004.0,N
1574576275.3,286047003.8,N
1574576295.2,286047004.1,N
1574576315.9,286047003.5,N
1574576335.7,286047001.9,N
1574576355.6,286047002.8,N
1574576375.4,286047002.3,N
1574576395.2,286047003.6,N
1574576415.1,286047001.8,N
1574576416.0,286047001.8,N
1574576435.8,286047001.6,N
1574576455.7,286047004.4,Y
1574576475.5,286046998.5,P
1574576495.3,286046998.2,N
1574576515.2,286046999.2,N
1574576535.0,286046999.0,N
1574576535.9,286046999.0,N
1574576555.8,286046997.0,N
1574576575.6,286046996.6,N
1574576595.4,286046999.5,N
1574576615.3,286046997.2,N
1574576635.1,286046997.1,N
1574576655.8,286046997.4,N
1574576675.7,286046999.5,N
1574576695.5,286046998.4,N
1574576715.3,286046999.3,N
1574576735.2,286046998.1,N
1574576755.0,286046996.9,N
1574576755.9,286046996.9,N
1574576775.8,286046998.4,N
1574576795.6,286046998.4,N
1574576815.4,286046998.5,N
1574576835.3,286046998.2,N
1574576855.1,286047000.8,N
1574576875.8,286047000.0,N
1574576895.7,286047000.8,N
1574576915.5,286046998.9,N
1574576935.4,286046997.1,N
1574576955.2,286046998.5,N
1574576975.0,286047000.7,N
1574576975.9,286047000.7,N
1574576995.8,286047002.4,N
1574577015.6,286047001.9,N
1574577035.4,286047000.4,N
1574577055.3,286047002.8,N
1574577075.1,286047002.7,N
1574577095.9,286047000.6,N
1574577115.7,286047002.7,N
1574577135.5,286047000.2,N
1574577155.4,286047001.7,N
1574577175.2,286047001.6,N
1574577195.0,286047004.1,N
1574577195.9,286047004.1,N
1574577215.8,286047001.9,N
1574577235.6,286047003.2,N
1574577255.5,286047002.9,N
1574577275.3,286047003.6,N
1574577295.1,286047002.6,N
1574577315.9,286047003.9,N
1574577335.7,286047003.1,N
1574577355.5,286047003.3,N
1574577375.4,286047005.8,Y
1574577395.2,286047004.1,P
1574577415.1,286047003.4,N
1574577416.0,286047003.4,P
1574577435.8,286047003.5,Y
1574577455.6,286047001.0,P
1574577475.5,286046998.5,N
1574577495.3,286046998.7,N
1574577515.2,286047000.4,N
1574577535.9,286047001.2,N
1574577555.7,286047000.8,N
1574577575.6,286046998.2,N
1574577595.4,286046998.7,N
1574577615.2,286047000.5,N
1574577635.1,286046999.7,N
1574577636.0,286046999.7,N
1574577655.8,286047002.6,N
1574577675.7,286047002.1,N
1574577695.5,286047002.0,N
1574577715.3,286047003.7,N
1574577735.2,286047003.8,N
1574577755.0,286047005.1,N
1574577755.9,286047005.1,N
1574577775.8,286047004.7,N
1574577795.6,286047007.4,Y
1574577815.4,286047004.7,P
1574577835.3,286047003.5,N
1574577855.1,286047003.3,N
1574577875.9,286047005.9,Y
1574577895.7,286047001.9,P
1574577915.5,286047002.5,P
1574577935.4,286047002.8,P
1574577955.2,286047002.4,Y
1574577975.0,286046998.6,P
1574577976.0,286046998.6,N
1574577995.8,286046998.1,N
1574578015.6,286046998.9,N
1574578035.5,286046999.4,N
1574578055.3,286047000.9,N
1574578075.1,286047002.2,N
1574578095.9,286047000.3,N
1574578115.7,286047001.7,N
1574578135.6,286047003.4,N
1574578155.4,286047002.2,N
1574578175.2,286047000.7,N
1574578195.1,286047001.1,N
1574578196.0,286047001.1,N
1574578215.8,286046998.5,N
1574578235.6,286047001.0,N
1574578255.5,286046998.7,N
1574578275.3,286047000.7,N
1574578295.2,286047001.2,N
1574578315.9,286047000.5,N
1574578335.7,286047000.8,N
1574578355.6,286046998.6,N
1574578375.4,286046998.1,N
1574578395.2,286046998.3,N
1574578415.1,286046998.2,N
1574578416.0,286046998.2,N
1574578435.8,286047001.1,N
1574578455.7,286047000.3,N
1574578475.5,286047000.1,N
1574578495.3,286047002.8,N
1574578515.2,286047001.5,N
1574578535.0,286047001.4,N
1574578535.9,286047001.4,N
1574578555.8,286047002.2,N
1574578575.6,286047000.3,N
1574578595.4,286047001.0,N
1574578615.3,286047001.8,N
1574578635.1,286047001.5,N
1574578655.8,286047001.4,N
1574578675.7,286047001.7,N
1574578695.5,286047002.0,N
1574578715.3,286047002.5,N
1574578735.2,286047001.9,N
1574578755.0,286047001.6,N
1574578755.9,286047001.6,N
1574578775.8,286047002.1,N
1574578795.6,286047001.5,N
